Danville, ME

2:27 AM EDT on July 30, 2016 (GMT -0400)
Auburn-Lewiston Municipal

Weather History for KLEW - January, 2014

Change the Weather History Date:

Tuesday, January 7, 2014

  Actual Average Record
Temperature  
Mean Temperature 17 °F -  
Max Temperature 28 °F 27 °F 46 °F (2007)
Min Temperature 6 °F 11 °F -4 °F (2015)
Degree Days  
Heating Degree Days 48    
Moisture  
Dew Point -3 °F    
Average Humidity 46    
Maximum Humidity 69    
Minimum Humidity 32    
Precipitation  
Precipitation 0.00 in - - ()
Sea Level Pressure  
Sea Level Pressure 29.70 in    
Wind  
Wind Speed 13 mph (WSW)    
Max Wind Speed 22 mph    
Max Gust Speed 31 mph    
Visibility 10 miles    
Events      
Averages and records for this station are not official NWS values.
T = Trace of Precipitation, MM = Missing Value Source: NWS Daily Summary

Daily Weather History Graph

Daily Weather History Graph

Search for Another Location

Airport or City:

Trip Planner

Search our weather history database for the weather conditions in past years. The results will help you decide how hot, cold, wet, or windy it might be!

Date:

Astronomy

Jan. 07, 2014 Rise Set
Actual Time 7:15 AM EST 4:19 PM EST
Civil Twilight 6:43 AM EST 4:52 PM EST
Nautical Twilight 6:06 AM EST 5:28 PM EST
Astronomical Twilight 5:31 AM EST 6:03 PM EST
Moon 10:46 AM EST (1/7) No Moon Set
Length of Visible Light 10h 09m
Length of Day
9h 03m
Waxing Crescent, 45% of the Moon is Illuminated
Jan 7
Waxing Crescent
Jan 7
First Quarter
Jan 15
Full
Jan 24
Last Quarter
Jan 30
New

Hourly Weather History & Observations

Time (EST) Temp. Windchill Dew Point Humidity Pressure Visibility Wind Dir Wind Speed Gust Speed Precip Events Conditions
12:15 AM 28.4 °F 18.0 °F 12.2 °F 51% 29.35 in 10.0 mi WNW 12.7 mph 24.2 mph N/A   Mostly Cloudy
12:35 AM 28.4 °F 19.7 °F 10.4 °F 47% 29.36 in 10.0 mi WNW 9.2 mph - N/A   Overcast
12:55 AM 28.4 °F 19.1 °F 8.6 °F 43% 29.36 in 10.0 mi NW 10.4 mph 16.1 mph N/A   Overcast
1:15 AM 26.6 °F 17.5 °F 8.6 °F 47% 29.38 in 10.0 mi WNW 9.2 mph - N/A   Overcast
1:35 AM 26.6 °F 19.1 °F 6.8 °F 43% 29.38 in 10.0 mi NW 6.9 mph - N/A   Mostly Cloudy
1:55 AM 26.6 °F - 8.6 °F 47% 29.39 in 10.0 mi Calm Calm - N/A   Scattered Clouds
2:15 AM 26.6 °F 19.1 °F 8.6 °F 47% 29.40 in 10.0 mi WNW 6.9 mph - N/A   Mostly Cloudy
2:35 AM 26.6 °F 20.0 °F 10.4 °F 51% 29.41 in 10.0 mi WSW 5.8 mph - N/A   Overcast
2:55 AM 26.6 °F 19.1 °F 12.2 °F 55% 29.41 in 10.0 mi West 6.9 mph - N/A   Overcast
3:15 AM 24.8 °F 15.3 °F 15.8 °F 69% 29.42 in 10.0 mi WSW 9.2 mph - N/A   Overcast
3:35 AM 24.8 °F 14.0 °F 12.2 °F 59% 29.43 in 10.0 mi WSW 11.5 mph 20.7 mph N/A   Overcast
3:55 AM 24.8 °F 16.1 °F 10.4 °F 54% 29.44 in 10.0 mi WSW 8.1 mph 16.1 mph N/A   Overcast
4:15 AM 23.0 °F 11.7 °F 8.6 °F 54% 29.45 in 10.0 mi West 11.5 mph - N/A   Mostly Cloudy
4:35 AM 23.0 °F 11.1 °F 6.8 °F 50% 29.45 in 10.0 mi WSW 12.7 mph 19.6 mph N/A   Overcast
4:55 AM 21.2 °F 8.9 °F 3.2 °F 46% 29.46 in 10.0 mi WSW 12.7 mph 20.7 mph N/A   Overcast
5:15 AM 21.2 °F 7.8 °F 1.4 °F 42% 29.46 in 10.0 mi WSW 15.0 mph 23.0 mph N/A   Overcast
5:35 AM 19.4 °F 7.2 °F 6.8 °F 58% 29.48 in 10.0 mi WNW 11.5 mph 18.4 mph N/A   Overcast
5:55 AM 19.4 °F 6.6 °F -0.4 °F 42% 29.50 in 10.0 mi West 12.7 mph 18.4 mph N/A   Overcast
6:15 AM 17.6 °F 1.7 °F -2.2 °F 42% 29.52 in 9.0 mi West 18.4 mph 24.2 mph N/A   Overcast
6:35 AM 17.6 °F 3.2 °F 1.4 °F 49% 29.53 in 10.0 mi West 15.0 mph 25.3 mph N/A   Mostly Cloudy
6:55 AM 15.8 °F -0.2 °F -4.0 °F 41% 29.55 in 10.0 mi WNW 17.3 mph 28.8 mph N/A   Overcast
7:15 AM 15.8 °F -0.2 °F -2.2 °F 45% 29.57 in 10.0 mi West 17.3 mph 26.5 mph N/A   Mostly Cloudy
7:35 AM 15.8 °F 0.3 °F -2.2 °F 45% 29.59 in 10.0 mi West 16.1 mph 20.7 mph N/A   Partly Cloudy
7:55 AM 14.0 °F 1.2 °F -4.0 °F 45% 29.61 in 10.0 mi WNW 10.4 mph 24.2 mph N/A   Scattered Clouds
8:15 AM 14.0 °F -2.0 °F -7.6 °F 38% 29.62 in 10.0 mi WNW 16.1 mph 29.9 mph N/A   Partly Cloudy
8:35 AM 14.0 °F 1.2 °F -5.8 °F 41% 29.64 in 10.0 mi West 10.4 mph 16.1 mph N/A   Scattered Clouds
8:55 AM 14.0 °F 2.9 °F -4.0 °F 45% 29.65 in 10.0 mi West 8.1 mph - N/A   Mostly Cloudy
9:15 AM 14.0 °F -1.4 °F -7.6 °F 38% 29.67 in 10.0 mi WNW 15.0 mph 27.6 mph N/A   Scattered Clouds
9:35 AM 15.8 °F 2.7 °F -9.4 °F 32% 29.68 in 10.0 mi West 11.5 mph 23.0 mph N/A   Clear
9:55 AM 14.0 °F -2.5 °F -9.4 °F 35% 29.69 in 10.0 mi NW 17.3 mph 29.9 mph N/A   Mostly Cloudy
10:15 AM 14.0 °F -3.4 °F -7.6 °F 38% 29.70 in 10.0 mi WNW 19.6 mph 26.5 mph N/A   Overcast
10:35 AM 14.0 °F 0.5 °F -7.6 °F 38% 29.71 in 10.0 mi West 11.5 mph 23.0 mph N/A   Overcast
10:55 AM 14.0 °F -2.5 °F -7.6 °F 38% 29.71 in 10.0 mi West 17.3 mph 26.5 mph N/A   Overcast
11:15 AM 14.0 °F -3.0 °F -5.8 °F 41% 29.71 in 10.0 mi West 18.4 mph 31.1 mph N/A   Overcast
11:35 AM 14.0 °F -3.0 °F -7.6 °F 38% 29.71 in 10.0 mi West 18.4 mph 27.6 mph N/A   Overcast
11:55 AM 14.0 °F -1.4 °F -4.0 °F 45% 29.72 in 10.0 mi West 15.0 mph 27.6 mph N/A   Overcast
12:15 PM 12.2 °F -2.5 °F -7.6 °F 41% 29.72 in 10.0 mi SW 12.7 mph 26.5 mph N/A   Overcast
12:35 PM 12.2 °F -1.8 °F -0.4 °F 57% 29.73 in 10.0 mi WNW 11.5 mph 21.9 mph N/A   Mostly Cloudy
12:55 PM 14.0 °F -1.4 °F -9.4 °F 35% 29.73 in 10.0 mi WSW 15.0 mph 29.9 mph N/A   Overcast
1:15 PM 14.0 °F -3.9 °F -2.2 °F 49% 29.74 in 10.0 mi WSW 20.7 mph 26.5 mph N/A   Overcast
1:35 PM 12.2 °F -2.5 °F -7.6 °F 41% 29.75 in 10.0 mi West 12.7 mph 19.6 mph N/A   Mostly Cloudy
1:55 PM 12.2 °F -1.8 °F -7.6 °F 41% 29.76 in 10.0 mi West 11.5 mph 20.7 mph N/A   Scattered Clouds
2:15 PM 12.2 °F -2.5 °F -2.2 °F 53% 29.77 in 10.0 mi WSW 12.7 mph - N/A   Scattered Clouds
2:35 PM 12.2 °F -5.8 °F -2.2 °F 53% 29.78 in 10.0 mi WSW 19.6 mph 24.2 mph N/A   Mostly Cloudy
2:55 PM 12.2 °F -4.3 °F -2.2 °F 53% 29.79 in 10.0 mi WSW 16.1 mph 23.0 mph N/A   Overcast
3:15 PM 12.2 °F -0.2 °F -5.8 °F 45% 29.80 in 10.0 mi WSW 9.2 mph 19.6 mph N/A   Mostly Cloudy
3:35 PM 12.2 °F -5.3 °F -5.8 °F 45% 29.80 in 10.0 mi West 18.4 mph 26.5 mph N/A   Mostly Cloudy
3:55 PM 12.2 °F -3.7 °F -13.0 °F 32% 29.81 in 10.0 mi West 15.0 mph 27.6 mph N/A   Scattered Clouds
4:15 PM 10.4 °F -7.7 °F -7.6 °F 44% 29.82 in 10.0 mi WSW 18.4 mph 24.2 mph N/A   Scattered Clouds
4:35 PM 10.4 °F -7.2 °F -9.4 °F 41% 29.83 in 10.0 mi WSW 17.3 mph 29.9 mph N/A   Mostly Cloudy
4:55 PM 10.4 °F -7.2 °F -7.6 °F 44% 29.85 in 10.0 mi SW 17.3 mph 21.9 mph N/A   Mostly Cloudy
5:15 PM 8.6 °F -5.5 °F -7.6 °F 48% 29.87 in 10.0 mi SW 10.4 mph 17.3 mph N/A   Scattered Clouds
5:35 PM 8.6 °F -7.7 °F -7.6 °F 48% 29.88 in 10.0 mi SW 13.8 mph 19.6 mph N/A   Partly Cloudy
5:55 PM 8.6 °F -6.3 °F -9.4 °F 44% 29.89 in 10.0 mi SW 11.5 mph 21.9 mph N/A   Clear
6:15 PM 8.6 °F -8.3 °F -9.4 °F 44% 29.90 in 10.0 mi SW 15.0 mph - N/A   Clear
6:35 PM 8.6 °F -8.9 °F -9.4 °F 44% 29.91 in 10.0 mi SW 16.1 mph 21.9 mph N/A   Scattered Clouds
6:55 PM 8.6 °F -7.7 °F -11.2 °F 40% 29.91 in 10.0 mi SW 13.8 mph 25.3 mph N/A   Partly Cloudy
7:15 PM 6.8 °F -13.8 °F -9.4 °F 48% 29.93 in 10.0 mi SW 21.9 mph 26.5 mph N/A   Clear
7:35 PM 6.8 °F -12.4 °F -9.4 °F 48% 29.93 in 10.0 mi SW 18.4 mph - N/A   Clear
7:55 PM 6.8 °F -10.7 °F -7.6 °F 52% 29.94 in 10.0 mi SW 15.0 mph 24.2 mph N/A   Clear
8:15 PM 6.8 °F -11.3 °F -9.4 °F 48% 29.95 in 10.0 mi SW 16.1 mph 23.0 mph N/A   Clear
8:35 PM 6.8 °F -12.9 °F -9.4 °F 48% 29.95 in 10.0 mi SW 19.6 mph 26.5 mph N/A   Clear
8:55 PM 6.8 °F -9.3 °F -9.4 °F 48% 29.96 in 10.0 mi SW 12.7 mph 19.6 mph N/A   Clear
9:15 PM 6.8 °F -11.3 °F -9.4 °F 48% 29.97 in 10.0 mi SW 16.1 mph 24.2 mph N/A   Clear
9:35 PM 6.8 °F -11.8 °F -9.4 °F 48% 29.96 in 10.0 mi SW 17.3 mph 26.5 mph N/A   Clear
9:55 PM 6.8 °F -13.4 °F -11.2 °F 44% 29.96 in 10.0 mi SW 20.7 mph 25.3 mph N/A   Clear
10:15 PM 6.8 °F -12.9 °F -11.2 °F 44% 29.96 in 10.0 mi SW 19.6 mph 27.6 mph N/A   Clear
10:35 PM 6.8 °F -8.6 °F -11.2 °F 44% 29.98 in 10.0 mi SW 11.5 mph 24.2 mph N/A   Clear
10:55 PM 6.8 °F -11.3 °F -9.4 °F 48% 29.99 in 10.0 mi SSW 16.1 mph 23.0 mph N/A   Clear
11:15 PM 6.8 °F -11.3 °F -9.4 °F 48% 29.98 in 10.0 mi WSW 16.1 mph 24.2 mph N/A   Clear
11:35 PM 6.8 °F -10.0 °F -9.4 °F 48% 29.98 in 10.0 mi SW 13.8 mph 27.6 mph N/A   Clear
11:55 PM 6.8 °F -10.7 °F -9.4 °F 48% 30.00 in 10.0 mi SSW 15.0 mph 20.7 mph N/A   Clear